Time,TemperatureF,DewpointF,PressureIn,WindDirection,WindDirectionDegrees,WindSpeedMPH,WindSpeedGustMPH,Humidity,HourlyPrecipIn,Conditions,Clouds,dailyrainin,SoftwareType,DateUTC
2013-02-09 00:01:00,20.0,12.0,-100.00,ENE,76,14.0,18.0,68,0.00,,,-99.99,,2013-02-09 00:01:00,
2013-02-09 00:11:00,20.0,12.0,-100.00,ENE,78,14.0,17.0,69,0.00,,,-99.99,,2013-02-09 00:11:00,
2013-02-09 00:21:00,20.0,12.0,-100.00,East,82,15.0,19.0,72,0.00,,,-99.99,,2013-02-09 00:21:00,
2013-02-09 00:31:00,20.0,13.0,-100.00,East,82,16.0,19.0,74,0.00,,,-99.99,,2013-02-09 00:31:00,
2013-02-09 00:41:00,20.0,13.0,-100.00,East,83,17.0,20.0,75,0.00,,,-99.99,,2013-02-09 00:41:00,
2013-02-09 00:52:00,-999.0,-99.9,-100.00,East,83,16.0,22.0,-999,-99.99,,,-99.99,,2013-02-09 00:52:00,
2013-02-09 01:01:00,19.0,13.0,-100.00,East,86,14.0,17.0,75,0.00,,,-99.99,,2013-02-09 01:01:00,
2013-02-09 01:11:00,19.0,13.0,-100.00,East,85,12.0,16.0,76,0.00,,,-99.99,,2013-02-09 01:11:00,
2013-02-09 01:21:00,19.0,12.0,-100.00,East,93,12.0,15.0,74,0.00,,,-99.99,,2013-02-09 01:21:00,
2013-02-09 01:31:00,19.0,11.0,-100.00,East,90,10.0,14.0,72,0.00,,,-99.99,,2013-02-09 01:31:00,
2013-02-09 01:41:00,19.0,11.0,-100.00,East,89,9.0,12.0,71,0.00,,,-99.99,,2013-02-09 01:41:00,
2013-02-09 01:51:00,19.0,11.0,-100.00,East,92,9.0,12.0,71,0.00,,,-99.99,,2013-02-09 01:51:00,
2013-02-09 02:01:00,19.0,11.0,-100.00,East,83,7.0,11.0,72,0.00,,,-99.99,,2013-02-09 02:01:00,
2013-02-09 02:11:00,19.0,11.0,-100.00,East,89,9.0,12.0,71,0.00,,,-99.99,,2013-02-09 02:11:00,
2013-02-09 02:21:00,19.0,10.0,-100.00,East,88,9.0,12.0,70,0.00,,,-99.99,,2013-02-09 02:21:00,
2013-02-09 02:31:00,19.0,10.0,-100.00,East,83,11.0,14.0,68,0.00,,,-99.99,,2013-02-09 02:31:00,
2013-02-09 02:41:00,20.0,10.0,-100.00,ENE,76,11.0,14.0,67,0.00,,,-99.99,,2013-02-09 02:41:00,
2013-02-09 02:52:00,20.0,10.0,-100.00,ENE,76,11.0,14.0,67,0.00,,,-99.99,,2013-02-09 02:52:00,
2013-02-09 03:01:00,19.0,11.0,-100.00,ENE,78,13.0,17.0,69,0.00,,,-99.99,,2013-02-09 03:01:00,
2013-02-09 03:11:00,19.0,11.0,-100.00,East,80,13.0,17.0,71,0.00,,,-99.99,,2013-02-09 03:11:00,
2013-02-09 03:21:00,19.0,10.0,-100.00,East,88,12.0,17.0,69,0.00,,,-99.99,,2013-02-09 03:21:00,
2013-02-09 03:31:00,18.0,10.0,-100.00,East,82,11.0,14.0,69,0.00,,,-99.99,,2013-02-09 03:31:00,
2013-02-09 03:41:00,18.0,10.0,-100.00,East,83,11.0,14.0,70,0.00,,,-99.99,,2013-02-09 03:41:00,
2013-02-09 03:51:00,18.0,10.0,-100.00,East,92,13.0,17.0,68,0.00,,,-99.99,,2013-02-09 03:51:00,
2013-02-09 04:02:00,18.0,10.0,-100.00,East,90,13.0,17.0,70,0.00,,,-99.99,,2013-02-09 04:02:00,
2013-02-09 04:11:00,18.0,10.0,-100.00,East,93,13.0,17.0,70,0.00,,,-99.99,,2013-02-09 04:11:00,
2013-02-09 04:22:00,18.0,10.0,-100.00,East,95,14.0,19.0,70,0.00,,,-99.99,,2013-02-09 04:22:00,
2013-02-09 04:31:00,18.0,10.0,-100.00,East,93,14.0,18.0,72,0.00,,,-99.99,,2013-02-09 04:31:00,
2013-02-09 04:41:00,18.0,10.0,-100.00,East,93,14.0,18.0,72,0.00,,,-99.99,,2013-02-09 04:41:00,
2013-02-09 04:51:00,18.0,11.0,-100.00,East,86,12.0,16.0,75,0.00,,,-99.99,,2013-02-09 04:51:00,
2013-02-09 05:01:00,18.0,11.0,-100.00,East,90,13.0,17.0,75,0.00,,,-99.99,,2013-02-09 05:01:00,
2013-02-09 05:11:00,17.0,11.0,-100.00,East,86,14.0,18.0,76,0.00,,,-99.99,,2013-02-09 05:11:00,
2013-02-09 05:22:00,17.0,11.0,-100.00,East,97,15.0,21.0,77,0.00,,,-99.99,,2013-02-09 05:22:00,
2013-02-09 05:31:00,17.0,11.0,-100.00,East,97,14.0,17.0,77,0.00,,,-99.99,,2013-02-09 05:31:00,
2013-02-09 05:41:00,17.0,11.0,-100.00,East,90,12.0,16.0,79,0.00,,,-99.99,,2013-02-09 05:41:00,
2013-02-09 05:51:00,16.0,12.0,-100.00,East,92,11.0,15.0,83,0.00,,,-99.99,,2013-02-09 05:51:00,
2013-02-09 06:01:00,16.0,13.0,-100.00,East,97,10.0,13.0,86,0.00,,,-99.99,,2013-02-09 06:01:00,
2013-02-09 06:11:00,16.0,12.0,-100.00,East,95,9.0,12.0,85,0.00,,,-99.99,,2013-02-09 06:11:00,
2013-02-09 06:21:00,15.0,12.0,-100.00,East,97,9.0,10.0,87,0.00,,,-99.99,,2013-02-09 06:21:00,
2013-02-09 06:31:00,15.0,12.0,-100.00,ESE,103,9.0,10.0,87,0.00,,,-99.99,,2013-02-09 06:31:00,
2013-02-09 06:41:00,15.0,12.0,-100.00,East,97,9.0,11.0,87,0.00,,,-99.99,,2013-02-09 06:41:00,
2013-02-09 06:51:00,15.0,12.0,-100.00,East,95,9.0,12.0,86,0.00,,,-99.99,,2013-02-09 06:51:00,
2013-02-09 07:01:00,15.0,12.0,-100.00,East,88,11.0,12.0,87,0.00,,,-99.99,,2013-02-09 07:01:00,
2013-02-09 07:11:00,15.0,11.0,-100.00,East,88,11.0,12.0,87,0.00,,,-99.99,,2013-02-09 07:11:00,
2013-02-09 07:21:00,15.0,11.0,-100.00,East,86,10.0,14.0,86,0.00,,,-99.99,,2013-02-09 07:21:00,
2013-02-09 07:31:00,15.0,12.0,-100.00,East,85,11.0,14.0,87,0.00,,,-99.99,,2013-02-09 07:31:00,
2013-02-09 07:41:00,15.0,12.0,-100.00,East,82,10.0,13.0,87,0.00,,,-99.99,,2013-02-09 07:41:00,
2013-02-09 07:51:00,15.0,12.0,-100.00,East,79,9.0,11.0,87,0.00,,,-99.99,,2013-02-09 07:51:00,
2013-02-09 08:01:00,15.0,12.0,-100.00,East,80,11.0,13.0,87,0.00,,,-99.99,,2013-02-09 08:01:00,
2013-02-09 08:11:00,15.0,12.0,-100.00,East,83,12.0,15.0,88,0.00,,,-99.99,,2013-02-09 08:11:00,
2013-02-09 08:21:00,15.0,12.0,-100.00,ENE,78,12.0,17.0,88,0.00,,,-99.99,,2013-02-09 08:21:00,
2013-02-09 08:32:00,-999.0,-99.9,-100.00,East,79,9.0,12.0,-999,-99.99,,,-99.99,,2013-02-09 08:32:00,
2013-02-09 08:41:00,14.0,12.0,-100.00,East,83,9.0,12.0,90,0.00,,,-99.99,,2013-02-09 08:41:00,
2013-02-09 08:51:00,14.0,13.0,-100.00,East,85,11.0,14.0,96,0.00,,,-99.99,,2013-02-09 08:51:00,
2013-02-09 09:02:00,14.0,13.0,-100.00,East,86,11.0,14.0,94,0.00,,,-99.99,,2013-02-09 09:02:00,
2013-02-09 09:11:00,15.0,13.0,-100.00,East,85,12.0,16.0,95,0.00,,,-99.99,,2013-02-09 09:11:00,
2013-02-09 09:21:00,15.0,13.0,-100.00,East,80,11.0,13.0,95,0.00,,,-99.99,,2013-02-09 09:21:00,
2013-02-09 09:31:00,14.0,13.0,-100.00,ENE,76,7.0,12.0,96,0.00,,,-99.99,,2013-02-09 09:31:00,
2013-02-09 09:42:00,-999.0,-99.9,-100.00,ENE,78,6.0,8.0,-999,-99.99,,,-99.99,,2013-02-09 09:42:00,
2013-02-09 09:51:00,15.0,13.0,-100.00,ENE,66,4.0,6.0,95,0.00,,,-99.99,,2013-02-09 09:51:00,
2013-02-09 10:01:00,15.0,13.0,-100.00,East,96,4.0,6.0,92,0.00,,,-99.99,,2013-02-09 10:01:00,
2013-02-09 10:11:00,15.0,13.0,-100.00,East,99,4.0,6.0,92,0.00,,,-99.99,,2013-02-09 10:11:00,
2013-02-09 10:21:00,15.0,13.0,-100.00,ESE,107,3.0,6.0,91,0.00,,,-99.99,,2013-02-09 10:21:00,
2013-02-09 10:31:00,15.0,12.0,-100.00,ESE,110,4.0,6.0,87,0.00,,,-99.99,,2013-02-09 10:31:00,
2013-02-09 10:41:00,16.0,12.0,-100.00,East,82,2.0,6.0,84,0.00,,,-99.99,,2013-02-09 10:41:00,
2013-02-09 10:51:00,16.0,10.0,-100.00,North,360,3.0,9.0,77,0.00,,,-99.99,,2013-02-09 10:51:00,
2013-02-09 11:01:00,16.0,11.0,-100.00,NNW,344,4.0,7.0,78,0.00,,,-99.99,,2013-02-09 11:01:00,
2013-02-09 11:11:00,17.0,10.0,-100.00,North,352,4.0,7.0,75,0.00,,,-99.99,,2013-02-09 11:11:00,
2013-02-09 11:21:00,16.0,10.0,-100.00,NNE,32,3.0,7.0,77,0.00,,,-99.99,,2013-02-09 11:21:00,
2013-02-09 11:31:00,16.0,10.0,-100.00,ENE,61,2.0,4.0,77,0.00,,,-99.99,,2013-02-09 11:31:00,
2013-02-09 11:41:00,16.0,10.0,-100.00,ESE,106,2.0,4.0,78,0.00,,,-99.99,,2013-02-09 11:41:00,
2013-02-09 11:52:00,15.0,10.0,-100.00,ESE,123,6.0,10.0,81,0.00,,,-99.99,,2013-02-09 11:52:00,
2013-02-09 12:01:00,15.0,10.0,-100.00,ESE,102,7.0,9.0,82,0.00,,,-99.99,,2013-02-09 12:01:00,
2013-02-09 12:11:00,15.0,11.0,-100.00,East,97,6.0,13.0,83,0.00,,,-99.99,,2013-02-09 12:11:00,
2013-02-09 12:21:00,15.0,11.0,-100.00,East,88,7.0,12.0,82,0.00,,,-99.99,,2013-02-09 12:21:00,
2013-02-09 12:32:00,15.0,10.0,-100.00,East,83,6.0,11.0,82,0.00,,,-99.99,,2013-02-09 12:32:00,
2013-02-09 12:42:00,-999.0,-99.9,-100.00,East,83,5.0,8.0,-999,-99.99,,,-99.99,,2013-02-09 12:42:00,
2013-02-09 12:52:00,15.0,11.0,-100.00,East,89,7.0,10.0,83,0.00,,,-99.99,,2013-02-09 12:52:00,
2013-02-09 13:01:00,15.0,11.0,-100.00,East,82,9.0,16.0,84,0.00,,,-99.99,,2013-02-09 13:01:00,
2013-02-09 13:11:00,15.0,11.0,-100.00,ENE,75,9.0,16.0,84,0.00,,,-99.99,,2013-02-09 13:11:00,
2013-02-09 13:21:00,15.0,11.0,-100.00,ENE,78,10.0,15.0,85,0.00,,,-99.99,,2013-02-09 13:21:00,
2013-02-09 13:31:00,15.0,11.0,-100.00,ENE,72,9.0,13.0,86,0.00,,,-99.99,,2013-02-09 13:31:00,
2013-02-09 13:41:00,15.0,12.0,-100.00,ENE,72,10.0,15.0,87,0.00,,,-99.99,,2013-02-09 13:41:00,
2013-02-09 13:51:00,15.0,12.0,-100.00,ENE,68,10.0,14.0,89,0.00,,,-99.99,,2013-02-09 13:51:00,
2013-02-09 14:01:00,15.0,13.0,-100.00,ENE,62,9.0,15.0,91,0.00,,,-99.99,,2013-02-09 14:01:00,
2013-02-09 14:11:00,15.0,13.0,-100.00,ENE,61,10.0,15.0,93,0.00,,,-99.99,,2013-02-09 14:11:00,
2013-02-09 14:21:00,15.0,14.0,-100.00,ENE,64,11.0,15.0,94,0.00,,,-99.99,,2013-02-09 14:21:00,
2013-02-09 14:31:00,15.0,14.0,-100.00,ENE,64,11.0,15.0,95,0.00,,,-99.99,,2013-02-09 14:31:00,
2013-02-09 14:41:00,15.0,14.0,-100.00,ENE,65,10.0,15.0,95,0.00,,,-99.99,,2013-02-09 14:41:00,
2013-02-09 14:52:00,15.0,14.0,-100.00,ENE,66,10.0,14.0,95,0.00,,,-99.99,,2013-02-09 14:52:00,
2013-02-09 15:01:00,15.0,14.0,-100.00,ENE,66,9.0,13.0,96,0.00,,,-99.99,,2013-02-09 15:01:00,
2013-02-09 15:11:00,15.0,14.0,-100.00,ENE,68,9.0,12.0,96,0.00,,,-99.99,,2013-02-09 15:11:00,
2013-02-09 15:21:00,15.0,14.0,-100.00,NE,56,10.0,14.0,97,0.00,,,-99.99,,2013-02-09 15:21:00,
2013-02-09 15:31:00,15.0,15.0,-100.00,NE,55,11.0,17.0,97,0.00,,,-99.99,,2013-02-09 15:31:00,
2013-02-09 15:41:00,15.0,15.0,-100.00,NE,51,10.0,17.0,97,0.00,,,-99.99,,2013-02-09 15:41:00,
2013-02-09 15:51:00,15.0,15.0,-100.00,NE,54,11.0,14.0,97,0.00,,,-99.99,,2013-02-09 15:51:00,
2013-02-09 16:01:00,16.0,15.0,-100.00,NE,54,11.0,15.0,97,0.00,,,-99.99,,2013-02-09 16:01:00,
2013-02-09 16:11:00,16.0,15.0,-100.00,NE,51,11.0,16.0,97,0.00,,,-99.99,,2013-02-09 16:11:00,
2013-02-09 16:21:00,16.0,15.0,-100.00,NE,55,11.0,17.0,97,0.00,,,-99.99,,2013-02-09 16:21:00,
2013-02-09 16:31:00,16.0,15.0,-100.00,ENE,66,11.0,14.0,97,0.00,,,-99.99,,2013-02-09 16:31:00,
2013-02-09 16:41:00,15.0,15.0,-100.00,ENE,59,11.0,14.0,97,0.00,,,-99.99,,2013-02-09 16:41:00,
2013-02-09 16:51:00,16.0,15.0,-100.00,ENE,61,9.0,12.0,97,0.00,,,-99.99,,2013-02-09 16:51:00,
2013-02-09 17:01:00,16.0,15.0,-100.00,ENE,65,9.0,14.0,97,0.00,,,-99.99,,2013-02-09 17:01:00,
2013-02-09 17:11:00,16.0,15.0,-100.00,ENE,68,9.0,12.0,97,0.00,,,-99.99,,2013-02-09 17:11:00,
2013-02-09 17:21:00,16.0,15.0,-100.00,ENE,73,9.0,12.0,97,0.00,,,-99.99,,2013-02-09 17:21:00,
2013-02-09 17:31:00,16.0,15.0,-100.00,ENE,75,9.0,12.0,97,0.00,,,-99.99,,2013-02-09 17:31:00,
2013-02-09 17:41:00,16.0,15.0,-100.00,ENE,68,9.0,13.0,97,0.00,,,-99.99,,2013-02-09 17:41:00,
2013-02-09 17:52:00,16.0,16.0,-100.00,ENE,71,10.0,12.0,97,0.00,,,-99.99,,2013-02-09 17:52:00,
2013-02-09 18:01:00,17.0,16.0,-100.00,ENE,65,9.0,13.0,97,0.00,,,-99.99,,2013-02-09 18:01:00,
2013-02-09 18:11:00,17.0,16.0,-100.00,ENE,62,9.0,13.0,97,0.00,,,-99.99,,2013-02-09 18:11:00,
2013-02-09 18:22:00,17.0,16.0,-100.00,NE,51,9.0,16.0,97,0.00,,,-99.99,,2013-02-09 18:22:00,
2013-02-09 18:31:00,17.0,16.0,-100.00,ENE,58,8.0,14.0,97,0.00,,,-99.99,,2013-02-09 18:31:00,
2013-02-09 18:41:00,17.0,16.0,-100.00,NE,54,7.0,12.0,97,0.00,,,-99.99,,2013-02-09 18:41:00,
2013-02-09 18:51:00,17.0,17.0,-100.00,ENE,61,9.0,12.0,97,0.00,,,-99.99,,2013-02-09 18:51:00,
2013-02-09 19:01:00,17.0,16.0,-100.00,NE,56,7.0,12.0,97,0.00,,,-99.99,,2013-02-09 19:01:00,
2013-02-09 19:11:00,17.0,17.0,-100.00,ENE,62,7.0,11.0,97,0.00,,,-99.99,,2013-02-09 19:11:00,
2013-02-09 19:21:00,18.0,17.0,-100.00,ENE,64,9.0,14.0,97,0.00,,,-99.99,,2013-02-09 19:21:00,
2013-02-09 19:31:00,17.0,17.0,-100.00,ENE,62,11.0,16.0,97,0.00,,,-99.99,,2013-02-09 19:31:00,
2013-02-09 19:41:00,18.0,17.0,-100.00,ENE,58,10.0,15.0,97,0.00,,,-99.99,,2013-02-09 19:41:00,
2013-02-09 19:51:00,18.0,17.0,-100.00,ENE,71,9.0,13.0,97,0.00,,,-99.99,,2013-02-09 19:51:00,
2013-02-09 20:01:00,17.0,16.0,-100.00,ENE,68,10.0,13.0,97,0.00,,,-99.99,,2013-02-09 20:01:00,
2013-02-09 20:11:00,17.0,16.0,-100.00,ENE,75,9.0,14.0,97,0.00,,,-99.99,,2013-02-09 20:11:00,
2013-02-09 20:21:00,17.0,17.0,-100.00,East,79,10.0,15.0,97,0.00,,,-99.99,,2013-02-09 20:21:00,
2013-02-09 20:31:00,17.0,16.0,-100.00,ENE,76,11.0,15.0,96,0.00,,,-99.99,,2013-02-09 20:31:00,
2013-02-09 20:41:00,17.0,15.0,-100.00,ENE,65,12.0,16.0,95,0.00,,,-99.99,,2013-02-09 20:41:00,
2013-02-09 20:52:00,17.0,16.0,-100.00,ENE,62,12.0,16.0,95,0.00,,,-99.99,,2013-02-09 20:52:00,
2013-02-09 21:01:00,17.0,16.0,-100.00,ENE,65,11.0,14.0,95,0.00,,,-99.99,,2013-02-09 21:01:00,
2013-02-09 21:11:00,17.0,16.0,-100.00,ENE,65,11.0,14.0,94,0.00,,,-99.99,,2013-02-09 21:11:00,
2013-02-09 21:21:00,17.0,16.0,-100.00,East,88,9.0,12.0,95,0.00,,,-99.99,,2013-02-09 21:21:00,
2013-02-09 21:31:00,17.0,15.0,-100.00,East,97,11.0,13.0,95,-99.99,,,-99.99,,2013-02-09 21:31:00,
2013-02-09 21:41:00,17.0,16.0,-100.00,East,100,9.0,12.0,95,0.00,,,-99.99,,2013-02-09 21:41:00,
2013-02-09 21:51:00,17.0,15.0,-100.00,East,96,9.0,12.0,94,0.00,,,-99.99,,2013-02-09 21:51:00,
2013-02-09 22:01:00,17.0,15.0,-100.00,East,96,9.0,14.0,94,0.00,,,-99.99,,2013-02-09 22:01:00,
2013-02-09 22:11:00,17.0,16.0,-100.00,East,92,9.0,14.0,95,0.00,,,-99.99,,2013-02-09 22:11:00,
2013-02-09 22:21:00,16.0,15.0,-100.00,East,93,7.0,11.0,95,0.00,,,-99.99,,2013-02-09 22:21:00,
2013-02-09 22:31:00,17.0,15.0,-100.00,East,88,7.0,11.0,95,0.00,,,-99.99,,2013-02-09 22:31:00,
2013-02-09 22:41:00,17.0,15.0,-100.00,East,83,8.0,11.0,95,0.00,,,-99.99,,2013-02-09 22:41:00,
2013-02-09 22:51:00,17.0,16.0,-100.00,ENE,72,8.0,10.0,95,0.00,,,-99.99,,2013-02-09 22:51:00,
2013-02-09 23:01:00,17.0,15.0,-100.00,ENE,62,9.0,12.0,95,0.00,,,-99.99,,2013-02-09 23:01:00,
2013-02-09 23:11:00,16.0,16.0,-100.00,ENE,58,9.0,11.0,98,0.00,,,-99.99,,2013-02-09 23:11:00,
2013-02-09 23:21:00,17.0,16.0,-100.00,ENE,61,9.0,11.0,98,0.00,,,-99.99,,2013-02-09 23:21:00,
2013-02-09 23:31:00,16.0,16.0,-100.00,ENE,59,8.0,10.0,98,0.00,,,-99.99,,2013-02-09 23:31:00,
2013-02-09 23:41:00,16.0,15.0,-100.00,NE,40,7.0,9.0,97,0.00,,,-99.99,,2013-02-09 23:41:00,
2013-02-09 23:52:00,17.0,16.0,-100.00,ENE,61,7.0,10.0,97,0.00,,,-99.99,,2013-02-09 23:52:00,